TimeMDT,TemperatureF,Dew PointF,Humidity,Sea Level PressureIn,VisibilityMPH,Wind Direction,Wind SpeedMPH,Gust SpeedMPH,PrecipitationIn,Events,Conditions,WindDirDegrees,DateUTC
12:53 AM,53.1,25.0,34,29.81,10.0,West,36.8,49.5,N/A,,Clear,280,2013-10-01 06:53:00
1:53 AM,51.1,26.1,38,29.85,10.0,West,23.0,33.4,N/A,,Clear,280,2013-10-01 07:53:00
2:53 AM,48.9,26.1,41,29.88,10.0,NW,15.0,-,N/A,,Clear,320,2013-10-01 08:53:00
3:53 AM,46.0,26.1,46,29.89,10.0,West,15.0,-,N/A,,Clear,280,2013-10-01 09:53:00
4:07 AM,46.9,26.1,44,29.90,10.0,SSW,11.5,-,N/A,,Clear,210,2013-10-01 10:07:00
4:53 AM,46.0,27.0,47,29.90,10.0,SW,11.5,-,N/A,,Clear,230,2013-10-01 10:53:00
5:53 AM,45.0,27.0,49,29.91,10.0,South,6.9,-,N/A,,Clear,190,2013-10-01 11:53:00
6:53 AM,41.0,28.9,62,29.94,10.0,SSW,9.2,-,N/A,,Partly Cloudy,200,2013-10-01 12:53:00
7:53 AM,42.1,30.0,62,29.95,10.0,SSW,5.8,-,N/A,,Scattered Clouds,200,2013-10-01 13:53:00
8:53 AM,46.0,28.9,51,29.95,10.0,SSW,8.1,-,N/A,,Scattered Clouds,210,2013-10-01 14:53:00
9:53 AM,53.1,28.9,40,29.94,10.0,SW,6.9,-,N/A,,Mostly Cloudy,220,2013-10-01 15:53:00
10:53 AM,55.0,33.1,43,29.93,10.0,Variable,4.6,-,N/A,,Scattered Clouds,0,2013-10-01 16:53:00
11:53 AM,59.0,30.0,33,29.91,10.0,Variable,5.8,-,N/A,,Scattered Clouds,0,2013-10-01 17:53:00
12:53 PM,60.1,30.9,33,29.89,10.0,East,5.8,-,N/A,,Scattered Clouds,100,2013-10-01 18:53:00
1:53 PM,62.1,30.9,31,29.86,10.0,ESE,8.1,-,N/A,,Partly Cloudy,110,2013-10-01 19:53:00
2:53 PM,66.0,30.9,27,29.84,10.0,NNW,4.6,-,N/A,,Partly Cloudy,340,2013-10-01 20:53:00
3:53 PM,64.9,30.9,28,29.85,10.0,North,5.8,-,N/A,,Partly Cloudy,360,2013-10-01 21:53:00
4:53 PM,63.0,33.1,33,29.85,10.0,ENE,9.2,-,N/A,,Scattered Clouds,70,2013-10-01 22:53:00
5:53 PM,61.0,34.0,36,29.86,10.0,East,8.1,-,N/A,,Scattered Clouds,80,2013-10-01 23:53:00
6:53 PM,59.0,33.1,38,29.88,10.0,ESE,6.9,-,N/A,,Scattered Clouds,110,2013-10-02 00:53:00
7:53 PM,57.0,36.0,45,29.89,10.0,NNE,4.6,-,N/A,,Mostly Cloudy,20,2013-10-02 01:53:00
8:53 PM,55.0,34.0,45,29.90,10.0,East,4.6,-,N/A,,Partly Cloudy,100,2013-10-02 02:53:00
9:53 PM,55.9,33.1,42,29.89,10.0,Calm,Calm,-,N/A,,Partly Cloudy,0,2013-10-02 03:53:00
10:53 PM,53.1,32.0,45,29.93,10.0,NNE,10.4,-,N/A,,Mostly Cloudy,20,2013-10-02 04:53:00
11:53 PM,50.0,30.9,48,29.94,10.0,NNE,8.1,-,N/A,,Mostly Cloudy,20,2013-10-02 05:53:00